Location: DaVinci Observatory
(43.1080°N, 78.6453°W)
Time: 22:38:07
(UTC-04:00)

Envisat - Pass Details

Date: 16 October 2017
Orbit: 764 x 766 km, 98.2° (Epoch: 22 October)

Event Time Altitude Azimuth Distance (km) Brightness Sun altitude
Exits shadow 20:46:16 56° 28° (NNE) 907 3.2 -25.6°
Drops below altitude 10° 20:50:31 10° 353° (N) 2,311 5.7 -26.4°
Sets 20:52:50 0° 350° (N) 3,241 6.5 -26.8°
